Simultaneous Nadir Overpasses (SNOs) Predictions

Prediction of SNOs between AQUA and METOP-A Satellite Orbit:

Table of predicted SNOs for the next 14.0 days since TLE Epoch: 11/9/2012
Index Date (AQUA) Time (AQUA) AQUA Lat,Lon Date (METOP-A) Time (METOP-A) METOP-A Lat,Lon Distance(km) Time Diff (sec)
1 11/11/2012 15:30:28 -73.80, 121.57 11/11/2012 15:29:47 -73.79, 121.56 1.18 41
2 11/11/2012 16:19:57 73.86, -70.92 11/11/2012 16:20:25 73.86, -70.95 1.09 28
3 11/14/2012 11:05:22 -73.55,-171.63 11/14/2012 11:04:11 -73.46,-172.80 38.49 71
4 11/14/2012 11:54:55 73.80, -4.54 11/14/2012 11:54:43 73.82, -4.63 3.35 12
5 11/14/2012 12:44:23 -73.89, 162.92 11/14/2012 12:45:24 -73.88, 162.84 2.43 61
6 11/17/2012 07:30:18 73.53, 62.17 11/17/2012 07:29:07 73.49, 61.04 36.19 71
7 11/17/2012 08:19:51 -73.86,-130.89 11/17/2012 08:19:42 -73.85,-130.80 2.83 9
8 11/17/2012 09:09:20 73.89, 36.67 11/17/2012 09:10:20 73.91, 36.68 2.85 60
9 11/20/2012 04:45:15 73.80, 102.88 11/20/2012 04:44:39 73.80, 102.84 1.33 36
10 11/20/2012 05:34:44 -73.89, -89.68 11/20/2012 05:35:20 -73.86, -89.69 3.09 36
11 11/23/2012 01:10:56 -73.27, -22.46 11/23/2012 01:09:48 -73.21, -24.75 73.50 68
12 11/23/2012 02:00:36 73.85, 143.94 11/23/2012 02:00:15 73.82, 143.98 3.05 21
13 11/23/2012 02:50:04 -73.86, -48.46 11/23/2012 02:50:56 -73.88, -48.55 3.47 52




NCC Satellite Simultaneous Nadir Overpasses (SNOs) Prediction Service
